Location: Newark
(40.9833°N, 0.0333°W)
Time: 01:57:26
(UTC+00:00)

deb Explorer IX - Pass Details

Date: 04 November 2020
Orbit: 537 x 1105 km, 38.8° (Epoch: 02 December)

Event Time Altitude Azimuth Distance (km) Brightness Sun altitude
Rises 04:14:40 0° 258° (WSW) 3,051 - -26.8°
Reaches altitude 10° 04:16:54 10° 256° (WSW) 2,215 - -26.4°
Exits shadow 04:21:29 64° 215° (SW) 889 ? -25.5°
Maximum altitude 04:22:06 70° 174° (S) 867 ? -25.4°
Drops below altitude 10° 04:28:17 10° 92° (E) 2,617 ? -24.2°
Sets 04:31:07 0° 90° (E) 3,649 ? -23.7°
